Location: Brno
(49.2000°N, 16.6330°E)
Time: 20:54:32
(UTC+02:00)

Explorer 11/Cluster Stage 4 - Pass Details

Date: 31 July 2021
Orbit: 467 x 1257 km, 28.8° (Epoch: 17 September)

Event Time Altitude Azimuth Distance (km) Brightness Sun altitude
Rises 12:05:14 0° 234° (SW) 4,193 10.4 57.1°
Reaches altitude 10° 12:09:35 10° 214° (SW) 3,204 10.1 57.3°
Maximum altitude 12:13:57 16° 181° (S) 2,728 10.1 57.6°
Drops below altitude 10° 12:18:09 10° 148° (SSE) 3,036 10.3 57.8°
Sets 12:22:05 0° 128° (SE) 3,863 10.5 58.0°
